TimeEST,TemperatureF,Dew PointF,Humidity,Sea Level PressureIn,VisibilityMPH,Wind Direction,Wind SpeedMPH,Gust SpeedMPH,PrecipitationIn,Events,Conditions,WindDirDegrees,DateUTC
12:54 AM,10.9,1.9,67,30.46,-9999.0,NW,8.1,-,N/A,,Unknown,320,2014-01-04 05:54:00
1:54 AM,10.9,1.9,67,30.47,-9999.0,NW,9.2,-,N/A,,Unknown,320,2014-01-04 06:54:00
2:54 AM,10.9,1.9,67,30.49,-9999.0,NW,4.6,-,N/A,,Unknown,320,2014-01-04 07:54:00
3:54 AM,10.9,1.0,64,30.48,-9999.0,NW,3.5,-,N/A,,Unknown,320,2014-01-04 08:54:00
4:54 AM,10.9,1.9,67,30.48,-9999.0,WNW,5.8,-,N/A,,Unknown,290,2014-01-04 09:54:00
5:54 AM,9.0,1.0,70,30.49,-9999.0,Calm,Calm,-,N/A,,Unknown,0,2014-01-04 10:54:00
6:54 AM,12.9,5.0,71,30.52,-9999.0,WSW,3.5,-,N/A,,Unknown,240,2014-01-04 11:54:00
7:54 AM,12.9,7.0,77,30.54,-9999.0,SW,5.8,-,N/A,,Unknown,230,2014-01-04 12:54:00
8:54 AM,16.0,9.0,74,30.54,-9999.0,SW,5.8,-,N/A,,Unknown,230,2014-01-04 13:54:00
9:54 AM,19.0,3.0,50,30.54,-9999.0,WSW,8.1,-,N/A,,Unknown,240,2014-01-04 14:54:00
10:54 AM,21.0,9.0,60,30.51,-9999.0,SW,3.5,-,N/A,,Unknown,220,2014-01-04 15:54:00
11:54 AM,27.0,18.0,69,30.48,-9999.0,Variable,6.9,-,N/A,,Unknown,0,2014-01-04 16:54:00
12:54 PM,30.0,19.9,66,30.43,-9999.0,WSW,8.1,-,N/A,,Unknown,240,2014-01-04 17:54:00
1:54 PM,30.9,19.9,64,30.42,-9999.0,SW,6.9,18.4,N/A,,Unknown,230,2014-01-04 18:54:00
2:54 PM,30.9,21.0,67,30.39,-9999.0,SW,8.1,-,N/A,,Unknown,220,2014-01-04 19:54:00
3:54 PM,32.0,21.9,66,30.39,-9999.0,Variable,5.8,-,N/A,,Unknown,0,2014-01-04 20:54:00
4:54 PM,32.0,21.9,66,30.37,-9999.0,SW,8.1,-,N/A,,Unknown,220,2014-01-04 21:54:00
5:54 PM,33.1,23.0,66,30.36,-9999.0,SW,9.2,-,N/A,,Unknown,220,2014-01-04 22:54:00
6:54 PM,34.0,24.1,67,30.36,-9999.0,SW,9.2,-,N/A,,Unknown,220,2014-01-04 23:54:00
7:54 PM,36.0,26.1,67,30.34,-9999.0,SSW,9.2,-,N/A,,Unknown,210,2014-01-05 00:54:00
8:54 PM,37.0,27.0,67,30.33,-9999.0,SW,8.1,-,N/A,,Unknown,220,2014-01-05 01:54:00
9:54 PM,33.1,26.1,75,30.33,-9999.0,West,5.8,-,N/A,,Unknown,260,2014-01-05 02:54:00
10:54 PM,32.0,26.1,79,30.33,-9999.0,West,9.2,-,N/A,,Unknown,260,2014-01-05 03:54:00
11:54 PM,32.0,26.1,79,30.32,-9999.0,WSW,9.2,-,N/A,,Unknown,250,2014-01-05 04:54:00